Weather in Baltra Island

Ecuador     0°39′15″N   90°24′15″W
temp.,
°C
wind,
m/s
gust,
m/s
humid.,
%
clouds,
%
prec.,
mm/h
press.,
hPa
HPBL,
m
21 june, mon
mon2100:00+23sse678088 0.2 1015607
03:00+23sse6783100 0.2 1013562
06:00+23sse7882100 0.4 1014681
09:00+24sse788073 0.1 1016659
12:00+24sse577885 0.2 1015589
15:00+24sse677743 0.0 1012566
18:00+24sse578283 0.1 1013567
21:00+24sse5680100 0.1 1015332
22 june, tue
tue2200:00+24sse568257 0.1 1015347
03:00+23sse5681100 0.1 1013433
06:00+23se568195 0.1 1014348
09:00+24sse677960 0.1 1015547
12:00+24sse67806 0.1 1014549
15:00+23sse568192 0.1 1012556
18:00+23sse66817 0.1 1012645
21:00+23se568297 0.0 1014541
23 june, wed
wed2300:00+23se568585 0.1 1014436
03:00+23se668498 0.1 1013496
06:00+22se668595 0.3 1014453
09:00+23sse678270 0.1 1015583
12:00+23sse668049 0.2 1014554
15:00+23sse568146 0.1 1012511
18:00+23sse558275 0.1 1013534
21:00+23sse558482 0.1 1015465
24 june, thu
thu2400:00+23se458395 0.2 1015415
03:00+23se448486 0.1 1014438
06:00+23se458490 0.1 1014487
09:00+24sse55828 0.0 1015556
12:00+24sse658111 0.0 1014533
15:00+23sse568267 0.0 1012598
18:00+23sse668524 0.1 1013593
21:00+23sse668694 0.1 1015482
25 june, fri
fri2500:00+23sse668792 0.3 1014448
03:00+23sse5687100 0.3 1013463
06:00+23sse668581 0.4 1013464
09:00+24sse6783100 0.0 1014508
12:00+23sse678452 0.1 1013536
15:00+23sse678550 0.1 1011489
18:00+23sse6785100 0.3 1012503
21:00+23sse6686100 0.2 1014449